Weather observations for the past three days for
Ukiah Municipal Airport
Imperial (Metric)
Date Time (pdt) Wind (mph) Vis. (mi.) Weather Sky Cond. Temperature (ºF) Relative Humidity Wind Chill (°F) Heat Index (°F) Pressure Precipitation (in)
Air Dwpt 6 hour altimeter (in) sea level (mb) 1 hr 3 hr 6 hr
Max. Min.
21 05:56 Calm 10.00 Fair CLR 64.9 52 63% 29.93 1012.8
21 04:56 NW 5 10.00 Fair CLR 66.9 52 75 66.9 59% 29.92 1012.4
21 03:56 NW 5 10.00 Fair CLR 69.1 51.1 53% 29.92 1012.3
21 02:56 Calm 10.00 Fair CLR 69.1 52 55% 29.93 1012.5
21 01:56 NE 7 10.00 Fair CLR 71.1 51.1 49% 29.93 1012.4
21 00:56 S 3 10.00 Fair CLR 70 52 53% 29.94 1012.9
20 23:56 NW 3 10.00 Fair CLR 73 53.1 50% 29.95 1013.1
20 22:56 NE 5 10.00 Fair CLR 75 53.1 91 75 46% 78 29.94 1013.0
20 21:56 NE 5 10.00 Fair CLR 78.1 53.1 42% 79 29.94 1013.0
20 20:56 NE 6 10.00 Fair CLR 81 54 39% 81 29.93 1012.7
20 19:56 N 9 10.00 Fair CLR 84.9 53.1 33% 83 29.93 1012.6
20 18:56 N 12 10.00 Fair CLR 87.1 54 32% 85 29.93 1012.6
20 17:56 N 14 G 32 10.00 Fair CLR 88 55 33% 86 29.92 1012.2
20 16:56 N 15 G 24 10.00 Fair CLR 91 55 95 87.1 30% 89 29.92 1012.1
20 15:56 N 13 G 22 10.00 Fair CLR 93 54 27% 91 29.92 1012.3
20 14:56 N 14 G 23 10.00 Fair CLR 93 54 27% 91 29.93 1012.5
20 13:56 N 12 10.00 Fair CLR 93.9 54 26% 92 29.93 1012.6
20 12:56 N 12 10.00 Fair CLR 91.9 53.1 27% 89 29.94 1012.9
20 11:56 N 10 G 20 10.00 Fair CLR 91 52 26% 88 29.95 1013.2
20 10:56 N 12 10.00 Fair CLR 88 50 88 68 27% 85 29.95 1013.4
20 09:56 NE 3 10.00 Fair CLR 82.9 53.1 36% 82 29.97 1013.8
20 08:56 Vrbl 3 10.00 Fair CLR 79 52 39% 79 29.98 1014.1
20 07:56 N 3 10.00 Fair CLR 73.9 52 46% 29.97 1014.0
20 06:56 N 5 10.00 Fair CLR 70 50 49% 29.96 1013.6
20 05:56 NW 3 10.00 Fair CLR 69.1 50 51% 29.95 1013.3
20 04:56 Calm 10.00 Fair CLR 70 50 78.1 66.9 49% 29.95 1013.2
20 03:56 Calm 10.00 Fair CLR 68 51.1 55% 29.95 1013.1
20 02:56 Calm 10.00 Fair CLR 72 48.9 44% 29.94 1012.9
20 01:56 NW 3 10.00 Fair CLR 73.9 48 40% 29.95 1013.1
20 00:56 N 3 10.00 Fair CLR 73.9 48 40% 29.96 1013.4
19 23:56 Calm 10.00 Fair CLR 73 46.9 40% 29.96 1013.6
19 22:56 Calm 10.00 Fair CLR 78.1 46.9 100 78.1 33% 78 29.96 1013.6
19 21:56 SE 3 10.00 Fair CLR 80.1 46.9 31% 79 29.96 1013.4
19 20:56 NE 7 10.00 Fair CLR 89.1 43 20% 85 29.94 1012.8
19 19:56 N 6 10.00 Fair CLR 91 46 21% 87 29.93 1012.7
19 18:56 W 9 G 17 10.00 Fair CLR 95 46 19% 91 29.93 1012.6
19 17:56 NW 10 G 23 10.00 Fair CLR 98.1 41 14% 94 29.93 1012.6
19 16:56 NW 9 G 21 10.00 Fair CLR 100 39.9 102 91 13% 95 29.94 1013.0
19 15:56 NW 14 G 23 10.00 Fair CLR 100.9 37.9 11% 96 29.95 1013.3
19 14:56 NW 18 G 26 10.00 Fair CLR 100.9 39 12% 96 29.96 1013.7
19 13:56 NW 21 G 30 10.00 Fair and Breezy CLR 100.9 39 12% 96 29.97 1014.0
19 12:56 NW 15 G 22 10.00 Fair CLR 102 39 11% 97 29.98 1014.3
19 11:56 Vrbl 3 10.00 Fair CLR 97 48 19% 93 29.99 1014.7
19 10:56 NW 3 10.00 Fair CLR 91.9 48 91.9 57.9 22% 89 30.01 1015.2
19 09:56 NW 5 10.00 Fair CLR 82.9 48.9 31% 81 30.03 1015.8
19 08:56 Calm 10.00 Fair CLR 75 52 45% 78 30.04 1016.4
19 07:56 Calm 10.00 Fair CLR 68 50 53% 30.05 1016.6
19 06:56 Calm 10.00 Fair CLR 63 48 58% 30.04 1016.3
19 05:56 Calm 10.00 Fair CLR 59 48 67% 30.02 1015.9
19 04:56 Calm 10.00 Fair CLR 62.1 48.9 73.9 60.1 62% 30.01 1015.5
19 03:56 Calm 10.00 Fair CLR 62.1 48.9 62% 30.01 1015.3
19 02:56 Calm 10.00 Fair CLR 63 48.9 60% 30.01 1015.4
19 01:56 Calm 10.00 Fair CLR 66.9 48 51% 30.02 1015.6
19 00:56 Calm 10.00 Fair CLR 66.9 48 51% 30.03 1015.8
18 23:56 Calm 10.00 Fair CLR 70 46.9 44% 30.03 1015.8
18 22:56 Calm 10.00 Fair CLR 73 46 97 73 38% 30.03 1015.9
18 21:56 Calm 10.00 Fair CLR 78.1 44.1 30% 78 30.02 1015.5
18 20:56 N 3 10.00 Fair CLR 84.9 42.1 22% 82 30 1015.1
18 19:56 N 9 10.00 Fair CLR 87.1 39 18% 84 29.99 1014.6
18 18:56 N 10 G 18 10.00 Fair CLR 91 42.1 18% 87 29.98 1014.3
18 17:56 N 8 10.00 Fair CLR 93.9 43 17% 90 29.96 1013.8
18 16:56 NW 10 G 23 10.00 Fair CLR 96.1 37.9 100.9 84.9 13% 91 29.95 1013.4
18 15:56 NW 14 G 21 10.00 Fair CLR 100 43 14% 96 29.96 1013.5
18 14:56 NW 12 G 20 10.00 Fair CLR 100.9 37 11% 96 29.97 1013.9
18 13:56 NW 8 10.00 Fair CLR 99 35.1 11% 94 29.98 1014.1
18 12:56 NW 8 10.00 Fair CLR 98.1 44.1 16% 94 29.98 1014.3
18 11:56 Vrbl 3 10.00 Fair CLR 91.9 53.1 27% 89 29.99 1014.6
18 10:56 Calm 10.00 Fair CLR 86 54 86 57 33% 84 30.01 1015.2
18 09:56 Calm 10.00 Fair CLR 79 54 42% 79 30.02 1015.7
18 08:56 Calm 10.00 Fair CLR 73 54 51% 30.03 1016.1
18 07:56 Calm 10.00 Fair CLR 66 53.1 63% 30.03 1016.0
18 06:56 Calm 10.00 Fair CLR 63 52 68% 30.02 1015.7
Date Time (pdt) Wind (mph) Vis. (mi.) Weather Sky Cond. Air Dwpt Max. Min. Relative Humidity Wind Chill (°F) Heat Index (°F) altimeter (in) sea level (mb) 1 hr 3 hr 6 hr
6 hour
Temperature (ºF) Pressure Precipitation (in)